Location: Chinna Viriv?da
(16.5281°N, 81.0493°E)
Time: 23:18:15
(UTC+00:00)

Cosmos 1486 Rocket - Pass Details

Date: 14 April 2026
Orbit: 755 x 778 km, 74.1° (Epoch: 9 May)

Event Time Altitude Azimuth Distance (km) Brightness Sun altitude
Rises 22:48:48 0° 343° (NNW) 3,213 7.2 -22.2°
Reaches altitude 10° 22:51:10 10° 341° (NNW) 2,290 6.4 -21.7°
Maximum altitude 22:56:20 71° 258° (WSW) 807 3.8 -20.5°
Drops below altitude 10° 23:01:32 10° 174° (S) 2,302 6.4 -19.3°
Sets 23:03:55 0° 172° (S) 3,231 7.2 -18.8°
